Notices

What's New in latest Release from April 7th, 2021:

- Updated Glossary, including Speed of Maximum Gust, and Total Hourly Precipitation

- Updated national and regional climate services offices contacts and prices information

- Addition of station inventory lists for 1981-2010, 1971-2000, and 1961-1990 Normals.

If you haven't already, please take our survey and provide feedback about our website: https://eccc.sondage-survey.ca/f/LanguageSelection.aspx?s=442ca660-fcf1-47c0-95a9-59707d6fd709

Hourly Data Report for January 14, 2021

OTTAWA INTL A
ONTARIO
Current Station Operator: NAVCAN

45°19'00.000" N
75°40'00.000" W
114.90 m
6106001
71628
YOW

Download Data

Hourly Data (January 2021)
Hourly Data Report for January 14, 2021
TIME
LST
Temp Definition
°C
Dew Point Definition
°C
Rel Hum Definition
%
Precip. Amount Definition
mm

Wind Dir Definition
10's deg

Wind Spd Definition
km/h
Visibility Definition
km
Stn Press Definition
kPa
Hmdx Definition


Wind Chill Definition


Weather Definition


00:00 0.0 -0.2 98   16 12 3.2 99.29   -4 Drizzle,Fog
01:00 0.0 -0.3 98   16 12 4.8 99.28   -4 Fog
02:00 -0.2 -0.5 98   18 11 8.1 99.34   -4 Fog
03:00 -0.3 -0.8 97   17 9 9.7 99.33   -3 Fog
04:00 -0.4 -1.0 96   17 7 8.1 99.32   -3 Fog
05:00 -0.5 -1.0 96   16 4 8.1 99.34   -2 Fog
06:00 -0.6 -1.1 96     0 6.4 99.39     Fog
07:00 -0.5 -0.9 97   18 6 8.1 99.43   -3 Fog
08:00 -0.5 -1.1 96   36 2 8.1 99.49   -1 Fog
09:00 -0.6 -1.1 97   36 2 6.4 99.54   -1 Fog
10:00 -0.3 -0.6 97   6 4 4.8 99.59   -2 Fog
11:00 -0.1 -0.5 97   5 8 4.0 99.58   -3 Fog
12:00 0.0 -0.4 97   4 10 4.0 99.53   -3 Fog
13:00 0.0 -0.5 96   5 9 3.2 99.53   -3 Fog
14:00 0.1 -0.5 96   3 9 4.0 99.53     Fog
15:00 0.3 -0.4 95   4 5 4.8 99.57     Fog
16:00 0.3 -0.6 94   4 10 6.4 99.65     Fog
17:00 0.1 -0.6 95   4 10 6.4 99.69     Fog
18:00 -0.1 -0.6 96   5 8 6.4 99.74   -3 Fog
19:00 -0.2 -0.7 96   4 11 8.1 99.83   -4 Fog
20:00 -0.3 -0.9 96   5 8 6.4 99.91   -3 Fog
21:00 -0.3 -0.9 96   5 8 8.1 99.94   -3 Fog
22:00 -0.4 -0.9 96   5 12 6.4 99.96   -4 Fog
23:00 -0.3 -0.9 95   5 13 4.8 99.98   -4 Fog

Notes on Data Quality.

Legend

  • E = Estimated
  • M = Missing
  • NA = Not Available*
  • [empty] = Indicates an unobserved value
Date modified: